Flag Weather past 2 weeks in Alice Springs, Northern Territory, Australia

Now
88 °F

Clear.


Feels Like: 86 °F
Forecast: 74 / 87 °F
Wind: 13 mph from Southeast

Location: Alice Springs Aerodrome

Current Time: Nov 24, 2014 at 10:23:42 PM

Latest Report: Nov 24, 2014 at 9:30 PM


Visibility: N/A

Pressure: 29.95 "Hg

Humidity: 33%

Dew point: 55 °F

Location of Alice SpringsLocation

Historic Weather in Alice Springs — Graph

°F

Alice Springs temperature yesterday

Maximum temperature yesterday: 102 °F (at 1:00 PM)
Minimum temperature yesterday: 75 °F (at 6:00 AM)
Average temperature yesterday: 90 °F

Past Weeks' High & Low Weather Summary

 TemperatureHumidityPressure
High106 °F (Nov 13, 2:00 PM)94% (Nov 15, 10:00 PM)32.81 "Hg (Nov 15, 10:00 PM)
Low57 °F (Nov 12, 5:30 AM)1% (Nov 11, 3:30 PM)29.71 "Hg (Nov 13, 4:30 PM)
Average83 °F31%29.96 "Hg
* Reported Nov 9 8:30 PM — Nov 24 9:00 PM, Alice Springs, Weather by CustomWeather, © 2014

Note: Actual official high and low records may vary slightly from our data, if they occured in-between our weather recording intervals... More about our weather records

Advertising

Alice Springs weather history for previous 24 hours

 ConditionsComfort  
Time TempWeatherWind HumidityBarometerVisibility
9:00 PM
Nov 24
88 °FClear.13 mph35%29.92 "HgN/A
8:30 PM86 °FClear.6 mph43%29.92 "HgN/A
8:00 PM86 °FClear.6 mph38%29.89 "HgN/A
7:30 PM88 °FClear.6 mph38%29.89 "HgN/A
7:00 PM88 °FClear.6 mph38%29.86 "HgN/A
6:30 PM91 °FSunny.7 mph30%29.86 "HgN/A
6:00 PM91 °FSunny.7 mph30%29.86 "HgN/A
5:30 PM93 °FSunny.9 mph24%29.86 "HgN/A
5:00 PM93 °FBroken clouds.6 mph28%29.86 "HgN/A
4:30 PM93 °FBroken clouds.6 mph28%29.86 "HgN/A
3:30 PM95 °FBroken clouds.8 mph26%32.81 "HgN/A
2:30 PM91 °FBroken clouds.3 mph34%N/AN/A
1:30 PM91 °FMostly cloudy.6 mph34%N/AN/A
7:30 AM77 °FBroken clouds.12 mph65%N/AN/A
3:00 AM79 °FSprinkles. Overcast.14 mph48%29.86 "Hg1 mi
2:30 AM81 °FMostly cloudy.7 mph58%29.86 "HgN/A
2:00 AM79 °FSprinkles. Partly cloudy.5 mph74%29.83 "HgN/A
1:30 AM79 °FClear.5 mph65%29.83 "HgN/A
12:30 AM79 °FClear.No wind61%29.86 "HgN/A
12:00 AM81 °FClear.5 mph58%29.89 "HgN/A
11:30 PM
Nov 23
82 °FClear.7 mph55%29.89 "HgN/A
11:00 PM84 °FPassing clouds.8 mph45%29.89 "HgN/A
10:30 PM84 °FPassing clouds.15 mph40%29.89 "HgN/A
10:00 PM82 °FSprinkles. Overcast.17 mph48%29.89 "HgN/A
Weather by CustomWeather, © 2014

See weather overviewHow to use our weather pages